星链-4091 (STARLINK-4091 )

导读 | 豆包AI

STARLINK-4091是美国太空探索技术公司SpaceX星链计划中的一颗卫星,于2022年6月17日发射入轨,属于低地球轨道通信卫星。它是星链星座组网的组成单元之一,旨在为全球提供高速宽带互联网服务,尤其覆盖偏远地区与网络基础设施薄弱区域,支撑全球卫星互联网通信网络的搭建与扩展。

Basic Information
目录编号:
52830
目录名称:
STARLINK-4091
国际标识:
2022-062A
轨道中心:
EARTH
卫星名称:
星链-4091
卫星全名:
星链-4091 (STARLINK-4091 )
卫星状态:
在轨 (已飞行1413 天)
发射日期:
2022-06-17 UTC
国别 :
美国 (US)
星等 :
--
Orbit Information
数据来源 国际轨道数据 AOE轨道数据
星历时间 2026-04-30T17:13:22+0800
12小时前
查看轨道信息
2026-04-28T08:00:00+0800
2天前
查看轨道信息
半长轴 6917.923km 6917.896km
偏心率 0.0000866 0.0000649
轨道倾角 53.216° 53.216°
近地点辐角 69.829° 59.422°
升交点赤经 162.246° 172.951°
平近点角 290.279° 302.789°
近地点 539.186km 539.31km
远地点 540.386km 540.208km
周期 95.438分钟 95.438分钟
每日圈数 15.088261 15.088349
Detailed Information
固有亮度:
5
最大亮度:
2.5
卫星平台:
Starlink v1.5
覆盖范围:
全球
运营商:
太空探索技术公司
运营商所在国:
美国
制造商(研发单位):
太空探索技术公司
制造商所在国:
美国
使用方式:
暂无
Satellite Introduction
星链(Starlink)计划是由太空探索技术公司(SpaceX)提出的一个巨型低轨卫星互联网星座项目,计划在2019年至2024年间在太空搭建由约1.2万颗卫星组成的“星链”网络,其中1584颗将部署在地球上空550千米处的近地轨道,并从2020年开始工作。该卫星仍在工作。
2D Orbit Map
3D Orbit Map
Orbit Altitude Analysis Chart
Orbit Inclination Analysis Chart
Orbit Comprehensive Analysis Chart
View Comprehensive Chart